This is the latest recevied weather packets stored in our database for station/object WA2TQI. If no packets are shown the sender has not sent any weather packets the latest 1 day(s).
| Time | Temp. | Humidity | Pressure | Rain* | Wind** | Luminosity | Snow |
|---|---|---|---|---|---|---|---|
| 1778063514 | 17.78° C | 87% | 1011.1 hPa | 0 mm | 2.24 m/s, 123° | - | - |
| 1778063213 | 17.78° C | 87% | 1011.2 hPa | 0 mm | 2.24 m/s, 79° | - | - |
| 1778062910 | 17.78° C | 88% | 1011.2 hPa | 0 mm | 2.68 m/s, 185° | - | - |
| 1778062606 | 17.78° C | 88% | 1011.4 hPa | 0 mm | 0.89 m/s, 206° | - | - |
| 1778062303 | 17.78° C | 88% | 1011.5 hPa | 0 mm | 1.79 m/s, 233° | - | - |
| 1778062002 | 17.78° C | 88% | 1011.4 hPa | 0 mm | 2.24 m/s, 173° | - | - |
| 1778061700 | 17.78° C | 88% | 1011.4 hPa | 0 mm | 2.68 m/s, 197° | - | - |
| 1778061398 | 17.78° C | 88% | 1011.3 hPa | 0 mm | 0.45 m/s, 177° | - | - |
| 1778061094 | 17.78° C | 88% | 1011.2 hPa | 0 mm | 1.34 m/s, 160° | - | - |
| 1778060792 | 17.78° C | 88% | 1011.1 hPa | 0 mm | 1.34 m/s, 163° | - | - |
| 1778060489 | 17.78° C | 88% | 1011.1 hPa | 0 mm | 0.89 m/s, 226° | - | - |
| 1778060188 | 17.78° C | 88% | 1011.1 hPa | 0 mm | 0.89 m/s, 189° | - | - |
| 1778059884 | 17.78° C | 88% | 1011 hPa | 0 mm | 1.34 m/s, 213° | - | - |
| 1778059582 | 17.78° C | 88% | 1011.1 hPa | 0 mm | 0.89 m/s, 193° | - | - |
| 1778059279 | 17.78° C | 88% | 1011.1 hPa | 0 mm | 0.89 m/s, 237° | - | - |
| 1778058977 | 17.78° C | 88% | 1011.1 hPa | 0 mm | 0.89 m/s, 155° | - | - |
| 1778058674 | 17.78° C | 88% | 1011.2 hPa | 0 mm | 1.79 m/s, 236° | - | - |
| 1778058373 | 17.78° C | 87% | 1011.1 hPa | 0 mm | 1.79 m/s, 217° | - | - |
| 1778058068 | 17.78° C | 87% | 1011.3 hPa | 0 mm | 1.34 m/s, 241° | - | - |
| 1778057765 | 17.78° C | 88% | 1011.2 hPa | 0 mm | 1.79 m/s, 172° | - | - |
| 1778057462 | 17.78° C | 88% | 1011.3 hPa | 0 mm | 2.68 m/s, 196° | - | - |
| 1778057159 | 18.33° C | 87% | 1011.2 hPa | 0 mm | 0.45 m/s, 170° | - | - |
| 1778056855 | 18.33° C | 88% | 1011.1 hPa | 0 mm | 1.34 m/s, 174° | - | - |
| 1778056552 | 18.33° C | 87% | 1011.4 hPa | 0 mm | 1.34 m/s, 148° | - | - |
| 1778056249 | 18.33° C | 87% | 1011.4 hPa | 0 mm | 2.68 m/s, 169° | - | - |
* Rain latest hour (hover to see other rain measurements)
** Current wind speed in m/s (hover to see current wind gust speed)